Location: Unspecified
(0.0000°N, 0.0000°E)
Time: 21:46:27
(UTC+00:00)

X-37B - Pass Details

Date: 21 October 2020
Orbit: 382 x 392 km, 45.0° (Epoch: 15 October)

Event Time Altitude Azimuth Distance (km) Brightness Sun altitude
Rises 18:24:04 0° 345° (NNW) 2,247 4.5 -9.7°
Reaches altitude 10° 18:26:47 10° 11° (N) 1,395 3.2 -10.4°
Maximum altitude 18:28:38 15° 47° (NE) 1,156 2.5 -10.8°
Enters shadow 18:28:52 14° 52° (NE) 1,161 2.4 -10.9°
